STPSAT-3 (39380 NORAD) Tracking and Keplerian Element Data

This shows tracking and keplerian element data for the satellite.

Feedback or suggestion? Click here.




ElementValue
Catalog39380
NameSTPSAT-3
Epoch Orbit25894
Epoch Day198.73926874
Epoch Year2018
RAAN299.237
Inclination40.5011
Eccentricity0.0002928
Argument of Perigee192.0834
Mean Anonmoly167.991
Mean Motion15.36111514
Decay Rate1.077E-05
L11 39380U 13064A 18198.73926874 .00001077 00000-0 36208-4 0 9998
L22 39380 40.5011 299.2370 0002928 192.0834 167.9910 15.36111514258945

Live tracking and technical data element details for STPSAT-3 (NORAD 39380). STPSAT-3 can be tracked NOW for your location showing map with azimuth and elevation plus other details from your city location.

Track the satellite on the map from your city or location and see movement details for azimuth, elevation, latitude, longitude, range, height, and movement on the map or in text.







IsCatalogInMostPopularTable: catalog: 39380, numindb: 52
Update: records affected: 1



GetName: 39380 STPSAT-3

Hit Count: updated at: Fri, 20 Jul 2018 02:42:03 GMT